Rochester, NH

8:58 AM EDT on July 21, 2017 (GMT -0400)
Skyhaven

Weather History for KDAW - July, 2013

Change the Weather History Date:

Monday, July 8, 2013

  Actual Average (KPSM) Record (KPSM)
Temperature  
Mean Temperature 71 °F -  
Max Temperature 78 °F 78 °F 96 °F (1988)
Min Temperature 64 °F 59 °F 45 °F (1979)
Cooling Degree Days 6    
Growing Degree Days 21 (Base 50)    
Moisture  
Dew Point 65 °F    
Average Humidity 85    
Maximum Humidity 94    
Minimum Humidity 66    
Precipitation  
Precipitation 0.12 in - - ()
Sea Level Pressure  
Sea Level Pressure 29.98 in    
Wind  
Wind Speed 4 mph (NE)    
Max Wind Speed 9 mph    
Max Gust Speed -    
Visibility 9 miles    
Events Rain    
Averages and records for this station are not official NWS values.
T = Trace of Precipitation, MM = Missing Value Source: NWS Daily Summary

Daily Weather History Graph

Daily Weather History Graph

Search for Another Location

Airport or City:

Trip Planner

Search our weather history database for the weather conditions in past years. The results will help you decide how hot, cold, wet, or windy it might be!

Date:

Astronomy

Jul. 08, 2013 Rise Set
Actual Time 5:11 AM EDT 8:25 PM EDT
Civil Twilight 4:36 AM EDT 9:00 PM EDT
Nautical Twilight 3:51 AM EDT 9:45 PM EDT
Astronomical Twilight 2:56 AM EDT 10:40 PM EDT
Moon 5:40 AM EDT (7/8) 8:22 PM EDT (7/8)
Length of Visible Light 16h 23m
Length of Day
15h 13m
New Moon, 0% of the Moon is Illuminated
Jul 8
New Moon
Jul 15
First Quarter
Jul 22
Full
Jul 29
Last Quarter
Aug 6
New

Hourly Weather History & Observations

Time (EDT) Temp. Dew Point Humidity Pressure Visibility Wind Dir Wind Speed Gust Speed Precip Events Conditions
12:51 AM 72.0 °F 70.0 °F 93% 29.90 in 7.0 mi Calm Calm - N/A   Clear
1:51 AM 72.0 °F 70.0 °F 93% 29.90 in 8.0 mi Calm Calm - N/A   Clear
2:51 AM 72.0 °F 70.0 °F 93% 29.90 in 10.0 mi Calm Calm - N/A   Mostly Cloudy
3:51 AM 72.0 °F 70.0 °F 93% 29.90 in 8.0 mi Calm Calm - N/A   Mostly Cloudy
4:51 AM 72.0 °F 70.0 °F 93% 29.91 in 8.0 mi NNW 3.5 mph - N/A   Overcast
5:48 AM 71.6 °F 69.8 °F 94% 29.92 in 8.0 mi NNW 4.6 mph - N/A   Mostly Cloudy
5:51 AM 72.0 °F 70.0 °F 93% 29.91 in 8.0 mi NNW 4.6 mph - N/A   Mostly Cloudy
6:51 AM 73.9 °F 71.1 °F 91% 29.92 in 10.0 mi North 4.6 mph - N/A   Overcast
7:51 AM 75.0 °F 70.0 °F 84% 29.93 in 10.0 mi NNE 9.2 mph - N/A   Overcast
8:51 AM 73.9 °F 68.0 °F 82% 29.95 in 10.0 mi NNE 6.9 mph - N/A   Overcast
9:51 AM 78.1 °F 69.1 °F 74% 29.95 in 10.0 mi Variable 4.6 mph - N/A   Mostly Cloudy
10:18 AM 77.0 °F 69.8 °F 78% 29.98 in 10.0 mi Variable 4.6 mph - N/A   Overcast
10:51 AM 75.9 °F 69.1 °F 79% 29.97 in 10.0 mi Calm Calm - N/A   Overcast
11:48 AM 73.4 °F 68.0 °F 83% 29.98 in 10.0 mi ESE 8.1 mph - N/A   Overcast
11:51 AM 73.9 °F 68.0 °F 82% 29.97 in 10.0 mi ESE 9.2 mph - N/A   Overcast
12:12 PM 73.4 °F 68.0 °F 83% 29.99 in 8.0 mi ESE 8.1 mph - N/A   Overcast
12:24 PM 73.4 °F 68.0 °F 83% 30.00 in 8.0 mi SE 5.8 mph - N/A   Overcast
12:51 PM 72.0 °F 66.9 °F 84% 29.99 in 7.0 mi ESE 6.9 mph - N/A   Overcast
1:12 PM 71.6 °F 64.4 °F 78% 30.00 in 8.0 mi East 9.2 mph - N/A   Overcast
1:46 PM 73.4 °F 64.4 °F 73% 30.00 in 10.0 mi SE 6.9 mph - N/A   Overcast
1:51 PM 72.0 °F 64.0 °F 76% 30.00 in 10.0 mi ENE 8.1 mph - N/A   Overcast
2:51 PM 73.9 °F 62.1 °F 66% 29.99 in 10.0 mi East 6.9 mph - N/A   Overcast
3:51 PM 71.1 °F 61.0 °F 70% 29.99 in 10.0 mi East 5.8 mph - N/A   Overcast
4:51 PM 69.1 °F 60.1 °F 73% 30.00 in 10.0 mi ESE 4.6 mph - N/A   Overcast
5:00 PM 68.0 °F 60.8 °F 78% 30.01 in 10.0 mi East 4.6 mph - N/A   Overcast
5:51 PM 68.0 °F 60.1 °F 76% 30.00 in 10.0 mi East 4.6 mph - 0.00 in   Mostly Cloudy
6:51 PM 66.0 °F 61.0 °F 84% 30.01 in 10.0 mi North 5.8 mph - 0.00 in   Overcast
7:49 PM 64.4 °F 62.6 °F 94% 30.04 in 2.5 mi NNW 5.8 mph - 0.06 in Rain Heavy Rain
7:51 PM 64.0 °F 62.1 °F 93% 30.04 in 2.5 mi NNW 5.8 mph - 0.07 in Rain Rain
8:01 PM 64.4 °F 62.6 °F 94% 30.04 in 4.0 mi Calm Calm - 0.01 in Rain Light Rain
8:51 PM 64.0 °F 61.0 °F 90% 30.05 in 10.0 mi NW 3.5 mph - 0.04 in Rain Light Rain
9:04 PM 64.4 °F 60.8 °F 88% 30.06 in 10.0 mi NNW 4.6 mph - N/A   Overcast
9:22 PM 64.4 °F 60.8 °F 88% 30.06 in 10.0 mi Calm Calm - N/A   Overcast
9:51 PM 64.0 °F 61.0 °F 90% 30.06 in 10.0 mi Calm Calm - N/A   Overcast
10:51 PM 64.0 °F 61.0 °F 90% 30.06 in 10.0 mi NNW 3.5 mph - 0.01 in   Overcast
11:51 PM 64.0 °F 61.0 °F 90% 30.06 in 10.0 mi North 3.5 mph - N/A   Overcast